Content
SEND FEEDBACK

Daily
Averages
Monthly
Summary
United States of America

TELLURIDE, COLORADO


Home > North America > United States > Colorado
Elevation: 9813 feet     Latitude: 37 57N     Longitude: 107 49W

WEATHER
 
SELECT A DAY
Number of Records: 299,524;   Date Range: 1/1/95 - 7/26/14
 
SHARE

PRINT THIS DATA

[ ← Previous Day ]
WEATHER ALMANAC - JULY 18, 2013
[ Next Day → ]
[ °C ]   °F
Weather ElementAverageHighLow
Temperature58.8 °F71.6 °F (1:15 pm)53.6 °F (3:55 am)
Dewpoint51.4 °F55.4 °F (12:35 am)46.4 °F (5:55 pm)
Humidity78.8 %100 % (1:15 am)46 % (1:15 pm)
Barometer30.50 in30.55 in (12:35 am)30.43 in (6:35 pm)
Wind Speed5.3 mph16.1 mph (1:35 pm)
Wind Gust23 mph (1:55 pm)
Weather ElementAverage
Visibility9.5 mi
Wind DirectionESE (121 °)

Weather ElementTotal
Precipitation0.12 in
Heating Degree Days2.4 (Base 65)
Growing Degree Days12.6 (Base 50)
Averaged from 69 records on July 18, 2013
WEATHER CONDITIONS BREAKOUT
WIND DIRECTION BREAKOUT
WEATHER BY HOUR - JULY 18, 2013
[ °C ]   °F
Local TimeTemperatureDewpointHumidityBarometerVisibilityWind DirectionWind SpeedGust SpeedPrecipitationEventsConditions
12:35 AM57.2 °F55.4 °F94 %30.55 in10.0 miCalmRain-ThunderstormLight Thunderstorms and Rain
12:55 AM57.2 °F55.4 °F94 %30.55 in10.0 miCalm0.01 inRain-ThunderstormLight Thunderstorms and Rain
1:15 AM55.4 °F55.4 °F100 %30.55 in10.0 miCalmThunderstorm
1:35 AM57.2 °F55.4 °F94 %30.55 in10.0 miCalmThunderstormOvercast
1:55 AM57.2 °F55.4 °F94 %30.55 in10.0 miCalmOvercast
2:15 AM55.4 °F55.4 °F100 %30.55 in3.0 miCalmOvercast
2:35 AM55.4 °F55.4 °F100 %30.55 in1.2 miWSW (250°)3.5 mphThunderstormOvercast
2:55 AM55.4 °F55.4 °F100 %30.55 in1.0 miWSW (250°)4.6 mphOvercast
3:15 AM55.4 °F55.4 °F100 %30.55 in7.0 miWest (260°)10.4 mphOvercast
3:35 AM55.4 °F53.6 °F94 %30.55 in10.0 miWSW (250°)10.4 mphMostly Cloudy
3:55 AM53.6 °F53.6 °F100 %30.55 in7.0 miWSW (250°)9.2 mphMostly Cloudy
4:15 AM53.6 °F53.6 °F100 %30.55 in10.0 miWSW (250°)5.8 mphOvercast
4:35 AM53.6 °F51.8 °F94 %30.54 in10.0 miCalmOvercast
4:55 AM53.6 °F53.6 °F100 %30.53 in10.0 miEast (80°)3.5 mphOvercast
5:15 AM53.6 °F53.6 °F100 %30.53 in10.0 miESE (110°)4.6 mphOvercast
5:35 AM53.6 °F53.6 °F100 %30.53 in10.0 miCalmScattered Clouds
5:55 AM53.6 °F51.8 °F94 %30.53 in10.0 miENE (70°)3.5 mphClear
6:15 AM53.6 °F53.6 °F100 %30.53 in10.0 miESE (120°)3.5 mphClear
6:35 AM53.6 °F51.8 °F94 %30.53 in10.0 miCalmClear
6:55 AM53.6 °F51.8 °F94 %30.52 in10.0 miCalmClear
7:15 AM55.4 °F51.8 °F88 %30.52 in10.0 miESE (120°)3.5 mphClear
7:35 AM55.4 °F51.8 °F88 %30.51 in10.0 miCalmClear
7:55 AM55.4 °F51.8 °F88 %30.51 in10.0 miESE (120°)5.8 mphClear
8:15 AM57.2 °F51.8 °F82 %30.52 in10.0 miESE (110°)4.6 mphClear
8:35 AM59.0 °F50.0 °F72 %30.52 in10.0 miCalmClear
8:55 AM59.0 °F50.0 °F72 %30.52 in10.0 miCalmClear
9:15 AM60.8 °F51.8 °F72 %30.51 in10.0 miCalmClear
9:35 AM62.6 °F48.2 °F59 %30.51 in10.0 miWSW (250°)5.8 mphClear
9:55 AM62.6 °F48.2 °F59 %30.51 in10.0 miWest (260°)6.9 mphClear
10:15 AM64.4 °F48.2 °F56 %30.51 in10.0 miWest (260°)9.2 mphClear
10:35 AM66.2 °F48.2 °F52 %30.50 in10.0 miWest (260°)10.4 mphClear
10:55 AM66.2 °F50.0 °F56 %30.50 in10.0 miWSW (250°)10.4 mphClear
11:15 AM68.0 °F50.0 °F52 %30.50 in10.0 miWest (260°)11.5 mphClear
11:35 AM68.0 °F50.0 °F52 %30.50 in10.0 miWest (260°)10.4 mph16.1 mphClear
11:55 AM68.0 °F50.0 °F52 %30.49 in10.0 miWest (260°)11.5 mph17.3 mphClear
12:15 PM68.0 °F50.0 °F52 %30.49 in10.0 miWSW (250°)9.2 mphClear
12:35 PM69.8 °F50.0 °F49 %30.48 in10.0 miWSW (250°)9.2 mph18.4 mphClear
12:55 PM69.8 °F50.0 °F49 %30.47 in10.0 miWest (270°)10.4 mph19.6 mphThunderstormThunderstorm
1:15 PM71.6 °F50.0 °F46 %30.46 in10.0 miWest (270°)15.0 mph21.9 mphThunderstormThunderstorm
1:35 PM71.6 °F50.0 °F46 %30.45 in10.0 miWest (260°)16.1 mph21.9 mphThunderstormThunderstorm
1:55 PM71.6 °F50.0 °F46 %30.45 in10.0 miWest (260°)15.0 mph23.0 mphThunderstormMostly Cloudy
2:15 PM71.6 °F50.0 °F46 %30.44 in10.0 miWSW (250°)15.0 mph21.9 mphThunderstormMostly Cloudy
2:35 PM69.8 °F51.8 °F53 %30.45 in10.0 miWNW (290°)5.8 mphThunderstormOvercast
2:55 PM68.0 °F53.6 °F60 %30.45 in10.0 miCalmRain-ThunderstormLight Thunderstorms and Rain
3:15 PM60.8 °F53.6 °F77 %30.46 in3.0 miCalm0.08 inRain-ThunderstormThunderstorms and Rain
4:15 PM59.0 °F51.8 °F77 %30.49 in10.0 miEast (100°)9.2 mph18.4 mphThunderstormThunderstorm
4:35 PM57.2 °F51.8 °F82 %30.49 in10.0 miESE (110°)10.4 mph20.7 mphThunderstormMostly Cloudy
4:55 PM57.2 °F50.0 °F77 %30.49 in10.0 miEast (80°)6.9 mphThunderstormThunderstorm
5:15 PM55.4 °F51.8 °F88 %30.48 in10.0 miENE (70°)6.9 mph18.4 mphRainLight Rain
5:35 PM55.4 °F50.0 °F82 %30.46 in10.0 miENE (70°)6.9 mph17.3 mph0.01 inRainLight Rain
5:55 PM57.2 °F46.4 °F67 %30.45 in10.0 miNE (40°)4.6 mph0.02 inRainLight Rain
6:15 PM55.4 °F50.0 °F82 %30.44 in10.0 miSE (130°)13.8 mph20.7 mphRainLight Rain
6:35 PM57.2 °F48.2 °F72 %30.43 in10.0 miSE (130°)9.2 mphThunderstormOvercast
6:55 PM57.2 °F50.0 °F77 %30.43 in10.0 miNorth (10°)3.5 mphScattered Clouds
7:15 PM57.2 °F50.0 °F77 %30.43 in10.0 miCalmClear
7:35 PM59.0 °F46.4 °F63 %30.43 in10.0 miENE (70°)3.5 mphClear
7:55 PM57.2 °F50.0 °F77 %30.44 in10.0 miEast (100°)6.9 mphClear
8:15 PM55.4 °F50.0 °F82 %30.45 in10.0 miESE (120°)9.2 mphThunderstormScattered Clouds
8:35 PM55.4 °F51.8 °F88 %30.45 in10.0 miEast (100°)3.5 mphMostly Cloudy
8:55 PM55.4 °F51.8 °F88 %30.46 in10.0 miEast (100°)4.6 mphOvercast
9:15 PM55.4 °F50.0 °F82 %30.47 in10.0 miESE (110°)5.8 mphOvercast
9:35 PM55.4 °F50.0 °F82 %30.47 in10.0 miESE (110°)3.5 mphOvercast
9:55 PM53.6 °F50.0 °F88 %30.49 in10.0 miCalmMostly Cloudy
10:15 PM55.4 °F51.8 °F88 %30.50 in10.0 miCalmThunderstormMostly Cloudy
10:35 PM55.4 °F50.0 °F82 %30.51 in10.0 miWSW (240°)5.8 mphOvercast
10:55 PM53.6 °F51.8 °F94 %30.51 in10.0 miWest (260°)5.8 mphThunderstormScattered Clouds
11:15 PM55.4 °F50.0 °F82 %30.53 in10.0 miCalmMostly Cloudy
11:35 PM53.6 °F51.8 °F94 %30.53 in10.0 miCalmOvercast
11:55 PM53.6 °F51.8 °F94 %30.53 in10.0 miCalmOvercast
Hourly data recorded from KTEX, located miles away from Telluride, Colorado







STORIES FROM OUR PARTNERS